Вернуться в каталог

YAM-10

АктивенЛюбительское радиоSSO
NORAD 64580·PAYLOAD·🇺🇸 United States

Запущен Jun 23, 2025 с Vandenberg Space Force Base

Loading…

Ближайшие Пролёты (ближайшие 24 часа)

TLE

СвежийSource: Space-Track

Эпоха: Sep 14, 2026, 17:57 UTC

1 64580U 25135BE  26257.74805852  .00001360  00000-0  13943-3 0  9993
2 64580  97.7802  10.4044 0004385  67.8671 292.3013 14.92070050 67210

Отслеживайте YAM-10 в реальном времени с AllMySat

Download on the App Store